Wind_Speed
23 28 32 33 35 39 42 41 38 37 39 39 38 40 44 35 27 26 29 24 35 33 42 48 39 37 39 36 35 32 35 35
20 27 31 31 32 35 36 36 36 38 33 32 35 35 38 41 31 27 28 33 34 28 27 37 36 38 40 40 40 33 30 33
13 24 30 29 29 28 32 30 29 29 33 33 25 30 31 27 34 33 30 32 34 32 34 33 29 33 37 38 37 36 38 32
9 15 21 22 24 24 27 26 21 26 31 34 33 26 26 26 33 35 39 33 31 32 36 35 34 26 33 38 38 37 33 33
6 10 20 22 21 22 22 21 20 28 31 32 27 22 21 23 27 33 38 34 32 30 30 31 31 30 24 24 37 34 34 31
10 14 15 15 19 22 23 23 27 29 28 28 24 24 24 24 24 30 32 32 28 31 32 29 29 27 25 29 27 32 33 37
11 19 18 18 22 22 25 28 30 28 29 32 30 27 26 27 27 27 29 29 28 30 30 31 27 26 24 22 20 21 35 36
10 12 16 16 18 20 23 28 28 31 31 32 31 27 24 23 21 21 25 28 29 31 26 29 30 29 24 22 16 11 13 23
8 7 12 10 13 20 23 26 25 28 30 30 29 24 22 21 21 22 22 25 25 26 25 23 27 30 28 26 24 24 13 18
5 3 9 10 16 16 18 23 23 24 25 26 24 22 21 22 21 21 21 22 26 24 24 27 29 32 31 28 31 31 30 30
5 4 4 11 12 15 21 23 23 22 20 20 20 19 21 22 22 23 23 23 25 26 25 26 30 33 33 31 33 32 37 35
8 14 13 10 15 19 20 21 22 21 21 19 19 20 21 21 23 24 25 25 28 29 26 29 28 29 31 35 33 32 38 43
18 22 13 14 15 16 18 20 20 20 17 17 19 19 22 25 25 28 27 29 28 30 29 32 32 34 32 30 31 33 34 40
8 15 8 8 11 12 16 19 19 17 16 17 20 20 23 26 29 31 30 30 33 31 35 34 33 33 34 34 28 33 35 36
7 13 14 14 18 16 18 18 18 15 18 19 19 21 20 25 29 30 32 32 33 35 35 33 35 33 32 32 31 31 31 35
9 7 13 9 12 14 19 17 15 17 21 21 21 20 22 26 30 31 30 32 33 31 34 34 34 33 32 30 30 30 30 30
17 19 26 7 9 14 12 13 16 18 19 19 19 21 24 27 30 28 26 25 31 32 32 31 35 35 35 27 27 27 29 29
21 19 16 6 12 10 12 12 15 17 20 18 18 20 22 24 23 25 26 27 28 28 31 31 35 36 31 28 24 24 27 29
18 20 10 7 10 13 12 14 15 18 21 16 17 20 21 22 24 23 22 24 26 26 29 31 32 35 32 28 26 24 25 27
Wind_Direction
59 59 55 54 47 42 35 31 20 20 16 8 2 357 356 354 7 352 335 334 283 249 251 258 245 241 238 232 231 227 228 231
63 59 56 53 46 39 34 31 19 14 17 15 2 353 348 348 351 352 353 346 341 328 312 265 247 237 236 232 229 229 233 233
55 55 50 52 50 45 36 35 27 15 10 9 5 356 345 343 345 350 350 352 347 344 323 325 289 249 239 235 227 226 232 226
27 40 46 49 46 42 34 28 24 22 14 6 1 359 352 346 348 348 348 346 346 341 340 328 321 319 251 242 235 226 230 231
30 18 27 25 29 28 30 31 34 19 10 12 10 358 348 341 340 339 345 345 345 347 345 339 335 323 309 305 256 239 233 236
358 4 3 24 38 36 38 37 22 15 14 14 11 2 353 346 346 342 340 343 344 351 350 345 337 339 321 302 307 252 245 244
354 5 355 35 38 43 33 23 21 18 9 5 7 358 350 347 349 348 342 343 344 347 356 357 350 344 342 337 300 297 254 243
357 357 26 53 53 40 32 25 18 10 9 7 3 359 351 347 350 353 349 344 352 349 1 3 5 4 0 355 7 334 295 302
332 358 96 86 66 45 34 25 20 14 9 8 6 358 357 354 356 2 358 351 348 358 8 18 19 15 22 17 20 17 26 351
293 110 114 104 75 56 39 31 23 19 14 8 6 3 1 5 1 10 4 8 353 3 9 24 32 37 30 26 32 29 32 39
309 340 57 98 82 59 42 35 30 23 17 14 14 13 6 12 14 17 12 22 8 9 9 22 31 39 41 40 40 40 50 40
6 348 18 95 58 44 37 36 32 29 18 16 16 19 19 21 23 23 22 28 20 25 16 33 31 30 35 45 44 38 44 49
0 356 30 58 37 36 37 34 27 25 25 23 23 26 33 34 30 35 29 33 29 28 25 35 36 39 40 42 44 46 42 44
348 6 23 58 36 24 40 32 29 29 31 38 38 36 37 41 44 43 35 31 34 26 35 31 33 36 40 44 45 46 48 50
357 11 17 36 35 1 27 25 28 33 46 48 46 41 44 45 44 43 40 35 33 30 35 30 35 37 39 45 47 46 46 44
3 8 356 21 30 15 18 24 32 48 55 52 51 47 47 52 56 48 41 41 38 31 33 30 34 34 35 48 50 48 46 44
333 333 333 38 42 39 17 28 47 57 59 52 48 54 57 56 54 45 41 37 38 36 32 29 33 35 49 51 50 50 48 45
320 323 328 20 46 52 50 47 55 59 58 52 57 55 52 52 54 53 47 42 40 37 34 31 34 33 41 45 45 45 46 45
316 320 326 94 70 71 63 62 57 56 56 48 52 48 47 51 50 50 47 42 39 36 34 32 35 31 32 39 43 42 41 39
Height
799 795 793 792 790 787 781 777 779 776 772 768 764 760 755 756 757 755 750 747 717 728 733 728 728 726 727 725 726 726 727 728
802 798 795 792 789 784 783 780 780 776 771 767 765 761 755 749 750 753 750 744 736 731 729 723 719 717 717 717 719 722 722 722
802 800 798 795 792 789 786 783 781 780 777 773 770 766 760 754 746 743 742 739 735 730 726 718 714 710 710 709 709 709 710 712
809 805 801 798 793 789 785 784 785 783 779 774 769 764 759 753 745 738 735 735 732 726 719 714 709 706 700 700 701 700 700 702
809 804 798 795 794 792 791 790 788 784 779 774 771 765 760 757 751 744 737 735 731 726 719 712 707 702 698 695 694 693 695 693
813 809 806 802 800 798 795 792 789 785 780 775 771 767 762 757 752 745 739 734 733 728 720 712 707 701 695 689 686 680 687 686
812 809 806 807 804 801 799 796 792 788 784 778 773 769 764 758 751 746 741 735 731 728 721 713 707 701 693 686 680 676 673 667
811 808 808 807 804 802 799 796 792 789 784 779 775 769 767 762 756 749 742 738 730 727 721 714 706 700 693 687 677 670 665 661
815 811 807 803 802 801 799 795 792 789 785 781 778 774 770 765 759 751 746 744 737 730 723 715 709 702 694 689 681 674 662 659
815 810 805 804 802 800 798 795 793 789 787 784 779 776 773 765 760 753 750 744 742 734 728 720 712 702 698 694 687 681 673 663
814 811 809 807 804 802 801 798 795 793 789 785 783 779 773 766 761 756 754 747 745 738 731 723 717 709 704 700 694 693 681 677
820 818 816 812 811 807 803 798 796 792 791 789 787 781 774 769 765 761 758 752 749 740 737 727 721 717 713 703 701 701 690 682
829 823 819 817 816 811 806 802 799 796 794 791 790 785 778 772 770 764 763 757 755 745 741 732 728 723 718 715 712 708 704 691
829 823 819 816 815 815 809 807 802 801 797 794 792 789 784 778 773 768 769 765 758 755 743 739 736 731 726 724 723 717 714 710
829 826 822 819 817 823 814 811 807 805 801 798 796 793 791 786 779 775 773 771 766 760 755 751 744 740 737 734 730 727 724 720
831 828 825 821 819 822 819 815 813 808 804 803 800 798 796 790 784 783 783 778 774 770 764 760 753 748 744 741 738 735 731 730
833 830 824 820 819 816 821 820 815 812 809 808 806 803 800 795 791 789 788 786 782 777 772 769 762 757 753 750 747 745 742 739
834 827 824 824 820 821 821 822 819 817 813 814 811 807 804 800 796 795 794 792 788 785 780 776 769 766 762 758 756 753 749 746
831 826 823 823 825 824 825 824 823 820 817 819 817 812 808 805 801 799 799 797 795 791 787 784 778 775 770 764 761 759 756 753